Weather in Baton Rouge

United States     30°26′45″N   91°05′23″W
temp.,
°C
wind,
m/s
gust,
m/s
humid.,
%
clouds,
%
prec.,
mm/h
press.,
hPa
HPBL,
m
25 may, wed
wed2501:00+23sse31194100 8.4 1011299
04:00+22sse399849 1.3 1010241
07:00+22s31197100 6.6 1012358
10:00+25ssw51087100 2.9 1012928
13:00+25wsw3783100 8.3 1013792
16:00+25sse3980100 0.5 1010637
19:00+23s3790100 3.5 1011248
22:00+21s2109526 5.0 1013313
26 may, thu
thu2601:00+20ssw279962 7.1 1013206
04:00+20nw489636 3.1 1013436
07:00+18s11968 6.4 101465
10:00+24wnw12610 0.0 1015590
13:00+28wnw36400 0.0 10151413
16:00+29wnw47370 0.0 10132273
19:00+25ssw24600 0.0 101284
22:00+21ssw39670 0.0 1014208
27 may, fri
fri2701:00+19wnw26760 0.0 1014139
04:00+18wnw23790 0.0 101469
07:00+19wsw11770 0.0 101520
10:00+25wnw24560 0.0 1016626
13:00+29wnw47440 0.0 10151832
16:00+30nw48370 0.0 10132072
19:00+25nnw24600 0.0 101378
22:00+20nne23650 0.0 101467
28 may, sat
sat2801:00+18ene22700 0.0 101436
04:00+17ese11770 0.0 101413
07:00+18ene22780 0.0 101549
10:00+26e11530 0.0 1015475
13:00+31n01380 0.0 10141250
16:00+31nw12370 0.0 10121630
19:00+28ese11612 0.0 101116
22:00+23s24740 0.0 101295
29 may, sun
sun2901:00+22s23820 0.0 101285
04:00+21sse12870 0.0 101247
07:00+21sse13860 0.0 101386
10:00+28sse23600 0.0 1014819
13:00+31sse334761 0.0 10131908
16:00+29ese245896 0.0 1012288
19:00+27s26707 0.0 1013369
22:00+22ese27730 0.0 1014174